Flag for China Weather past 2 weeks in Langfang, Hebei, China

Now
70 °F

Haze.


Feels Like: 70 °F
Forecast: 51 / 66 °F
Wind: 1 mph from North

Location: Beijing Airport

Current Time: Apr 18, 2015 at 1:13:27 PM

Latest Report: Apr 18, 2015 at 12:30 PM


Visibility: 3 mi

Pressure: 29.86 "Hg

Humidity: 50%

Dew point: 50 °F

Location of LangfangLocation

Historic Weather in Langfang — Graph

°F

Langfang temperature yesterday

Maximum temperature yesterday: 79 °F (at 3:00 PM)
Minimum temperature yesterday: 43 °F (at 5:00 AM)
Average temperature yesterday: 63 °F

Past Weeks' High & Low Weather Summary

 TemperatureHumidityPressure
High79 °F (Apr 14, 1:30 PM)94% (Apr 11, 5:30 AM)30.57 "Hg (Apr 11, 5:30 AM)
Low32 °F (Apr 7, 5:00 AM)8% (Apr 16, 3:30 PM)29.36 "Hg (Apr 15, 3:30 PM)
Average55 °F44%30.05 "Hg
* Reported Apr 3 12:00 Noon — Apr 18 12:00 Noon, Langfang, Weather by CustomWeather, © 2015

Note: Actual official high and low records may vary slightly from our data, if they occured in-between our weather recording intervals... More about our weather records

Advertising

Langfang weather history for previous 24 hours

 ConditionsComfort  
Time TempWeatherWind HumidityBarometerVisibility
12:00 PM
Sat, Apr 18
70 °FHaze.3 mph50%29.86 "Hg3 mi
11:30 AM70 °FHaze.1 mph50%29.86 "Hg3 mi
11:00 AM68 °FHaze.3 mph53%29.86 "Hg3 mi
10:30 AM66 °FHaze.3 mph52%29.86 "Hg3 mi
10:00 AM64 °FHaze.1 mph52%29.89 "Hg3 mi
9:30 AM63 °FHaze.3 mph59%29.86 "Hg3 mi
9:00 AM61 °FHaze.3 mph55%29.86 "Hg3 mi
8:30 AM61 °FClear.6 mph55%29.86 "Hg4 mi
8:00 AM59 °FClear.3 mph63%29.86 "Hg4 mi
7:30 AM59 °FClear.1 mph59%29.86 "Hg4 mi
7:00 AM59 °FClear.1 mph59%29.86 "Hg4 mi
6:30 AM59 °FClear.1 mph59%29.86 "Hg4 mi
6:00 AM57 °FClear.1 mph59%29.83 "Hg4 mi
5:30 AM57 °FClear.3 mph55%29.83 "Hg4 mi
5:00 AM57 °FClear.1 mph59%29.83 "Hg5 mi
4:30 AM57 °FClear.1 mph59%29.83 "Hg5 mi
4:00 AM57 °FClear.1 mph59%29.83 "Hg5 mi
3:30 AM59 °FClear.3 mph55%29.83 "Hg5 mi
3:00 AM59 °FClear.1 mph55%29.83 "Hg4 mi
2:30 AM59 °FClear.3 mph55%29.83 "Hg4 mi
2:00 AM61 °FClear.3 mph48%29.83 "Hg4 mi
1:30 AM61 °FClear.3 mph48%29.83 "Hg4 mi
1:00 AM61 °FClear.3 mph48%29.83 "Hg4 mi
12:30 AM61 °FClear.3 mph52%29.83 "Hg4 mi
12:00 AM61 °FClear.1 mph48%29.83 "Hg4 mi
11:30 PM
Fri, Apr 17
61 °FClear.1 mph48%29.83 "Hg5 mi
11:00 PM61 °FClear.1 mph48%29.83 "Hg5 mi
10:30 PM63 °FClear.1 mph45%29.80 "Hg5 mi
10:00 PM63 °FClear.1 mph49%29.80 "Hg5 mi
9:30 PM63 °FClear.1 mph42%29.80 "Hg10 mi
9:00 PM64 °FClear.1 mph40%29.80 "Hg10 mi
8:30 PM66 °FClear.1 mph37%29.80 "Hg10 mi
8:00 PM70 °FPassing clouds.3 mph31%29.77 "HgN/A
7:30 PM70 °FPassing clouds.6 mph31%29.77 "HgN/A
7:00 PM70 °FPassing clouds.6 mph29%29.74 "HgN/A
6:30 PM70 °FSunny.6 mph31%29.74 "Hg10 mi
6:00 PM73 °FSunny.10 mph25%29.71 "Hg10 mi
5:30 PM75 °FSunny.10 mph22%29.71 "Hg10 mi
5:00 PM77 °FSunny.13 mph17%29.71 "Hg10 mi
4:30 PM79 °FPassing clouds.10 mph16%29.71 "HgN/A
4:00 PM79 °FSunny.13 mph15%29.71 "Hg10 mi
3:30 PM79 °FSunny.10 mph17%29.71 "Hg10 mi
3:00 PM79 °FSunny.10 mph17%29.71 "Hg10 mi
2:30 PM77 °FPassing clouds.10 mph18%29.74 "HgN/A
2:00 PM77 °FSunny.10 mph19%29.74 "Hg10 mi
1:30 PM77 °FSunny.10 mph19%29.74 "Hg10 mi
1:00 PM73 °FSunny.10 mph20%29.77 "Hg10 mi
Weather by CustomWeather, © 2015

See weather overviewHow to use our weather pages